Location: �perlecques
(50.8057°N, 2.1521°E)
Time: 19:48:32
(UTC+00:00)

Oscar 11 - Pass Details

Date: 04 October 2021
Orbit: 612 x 625 km, 97.6° (Epoch: 23 October)

Event Time Altitude Azimuth Distance (km) Brightness Sun altitude
Rises 17:59:38 0° 220° (SW) 2,878 11.1 -6.7°
Reaches altitude 10° 18:03:19 10° 254° (WSW) 1,977 11.1 -7.3°
Maximum altitude 18:04:49 12° 274° (W) 1,874 11.2 -7.5°
Drops below altitude 10° 18:06:20 10° 295° (WNW) 1,981 10.9 -7.8°
Sets 18:10:03 0° 328° (NNW) 2,893 11.0 -8.3°
